When you browse on this site, cookies collect data to enhance your experience and personalize the content and advertising you see.
Visit our Privacy Policy to learn more. By continuing to use the site, you agree to this use of cookies and data.

Hourly Weather Veere

Today, 22 September, Tuesday

Time Temperature Precipitation Wind Pressure Humidity
00:00 +15°C° 0 mm 2 mps 760 mmHg 85%
01:00 +15°C° 0 mm 2 mps 760 mmHg 85%
02:00 +15°C° 0 mm 1 mps 759 mmHg 85%
03:00 +14°C° 0 mm 1 mps 759 mmHg 85%
04:00 +14°C° 0 mm 1 mps 759 mmHg 86%
05:00 +14°C° 0 mm 1 mps 759 mmHg 86%
06:00 +14°C° 0 mm 1 mps 759 mmHg 87%
07:00 +16°C° 0 mm 1 mps 758 mmHg 80%
08:00 +18°C° 0 mm 2 mps 758 mmHg 73%
09:00 +19°C° 0 mm 2 mps 758 mmHg 66%
10:00 +21°C° 0 mm 2 mps 758 mmHg 59%
11:00 +23°C° 0 mm 2 mps 757 mmHg 53%
12:00 +24°C° 0 mm 2 mps 757 mmHg 46%
13:00 +24°C° 0 mm 2 mps 756 mmHg 46%
14:00 +24°C° 0 mm 2 mps 756 mmHg 45%
15:00 +24°C° 0 mm 2 mps 755 mmHg 45%
16:00 +21°C° 0 mm 2 mps 755 mmHg 51%
17:00 +19°C° 0 mm 2 mps 755 mmHg 57%
18:00 +18°C° 0 mm 1 mps 754 mmHg 63%
19:00 +17°C° 0 mm 2 mps 754 mmHg 63%
20:00 +17°C° 0 mm 3 mps 754 mmHg 64%
21:00 +17°C° 0 mm 3 mps 754 mmHg 65%
22:00 +15°C° 0 mm 4 mps 754 mmHg 68%
23:00 +15°C° 0 mm 5 mps 754 mmHg 71%

Tomorrow, 23 September, Wednesday

Time Temperature Precipitation Wind Pressure Humidity
00:00 +14°C° 0 mm 5 mps 753 mmHg 74%
01:00 +14°C° 0 mm 5 mps 753 mmHg 81%
02:00 +14°C° 0 mm 5 mps 753 mmHg 87%
03:00 +14°C° 0 mm 6 mps 753 mmHg 94%
04:00 +14°C° 0 mm 6 mps 753 mmHg 94%
05:00 +14°C° 0 mm 6 mps 753 mmHg 94%
06:00 +14°C° 0 mm 6 mps 753 mmHg 94%
07:00 +15°C° 0.1 mm 6 mps 753 mmHg 87%
08:00 +17°C° 0.1 mm 7 mps 752 mmHg 80%
09:00 +20°C° 0.1 mm 8 mps 752 mmHg 73%
10:00 +20°C° 0.1 mm 8 mps 752 mmHg 71%
11:00 +19°C° 0.1 mm 9 mps 752 mmHg 69%
12:00 +19°C° 0.1 mm 9 mps 752 mmHg 67%
13:00 +20°C° 0.4 mm 8 mps 752 mmHg 68%
14:00 +20°C° 0.4 mm 7 mps 751 mmHg 69%
15:00 +20°C° 0.4 mm 7 mps 751 mmHg 69%
16:00 +19°C° 0.2 mm 6 mps 751 mmHg 72%
17:00 +17°C° 0.2 mm 6 mps 750 mmHg 75%
18:00 +17°C° 0.2 mm 5 mps 750 mmHg 77%
19:00 +16°C° 0.9 mm 5 mps 750 mmHg 83%
20:00 +15°C° 0.9 mm 5 mps 749 mmHg 88%
21:00 +15°C° 0.9 mm 6 mps 749 mmHg 93%
22:00 +15°C° 2.1 mm 7 mps 748 mmHg 90%
23:00 +16°C° 2.1 mm 8 mps 748 mmHg 87%

Day after tomorrow, 24 September, Thursday

Time Temperature Precipitation Wind Pressure Humidity
00:00 +16°C° 2.1 mm 9 mps 748 mmHg 84%
01:00 +15°C° 0.1 mm 9 mps 748 mmHg 83%
02:00 +13°C° 0.1 mm 9 mps 749 mmHg 81%
03:00 +12°C° 0.1 mm 9 mps 749 mmHg 80%
04:00 +11°C° 0 mm 9 mps 749 mmHg 80%
05:00 +11°C° 0 mm 9 mps 750 mmHg 79%
06:00 +10°C° 0 mm 8 mps 750 mmHg 79%
07:00 +11°C° 0 mm 8 mps 750 mmHg 76%
08:00 +12°C° 0 mm 8 mps 750 mmHg 72%
09:00 +13°C° 0 mm 8 mps 751 mmHg 69%
10:00 +15°C° 0 mm 9 mps 750 mmHg 64%
11:00 +16°C° 0 mm 9 mps 750 mmHg 58%
12:00 +17°C° 0 mm 10 mps 749 mmHg 53%
13:00 +14°C° 0.7 mm 10 mps 749 mmHg 63%
14:00 +13°C° 0.7 mm 9 mps 749 mmHg 72%
15:00 +12°C° 0.7 mm 9 mps 748 mmHg 82%
16:00 +11°C° 1.3 mm 9 mps 748 mmHg 84%
17:00 +11°C° 1.3 mm 8 mps 747 mmHg 86%
18:00 +10°C° 1.3 mm 7 mps 747 mmHg 89%
19:00 +10°C° 0.1 mm 8 mps 747 mmHg 89%
20:00 +10°C° 0.1 mm 8 mps 747 mmHg 89%
21:00 +9°C° 0.1 mm 8 mps 747 mmHg 89%
22:00 +9°C° 0.3 mm 8 mps 747 mmHg 88%
23:00 +8°C° 0.3 mm 9 mps 747 mmHg 87%

25 September, Friday

Time Temperature Precipitation Wind Pressure Humidity
00:00 +8°C° 0.3 mm 9 mps 746 mmHg 86%
01:00 +7°C° 0.3 mm 8 mps 746 mmHg 86%
02:00 +8°C° 0.3 mm 7 mps 746 mmHg 87%
03:00 +6°C° 0.3 mm 7 mps 746 mmHg 87%
04:00 +7°C° 0.2 mm 6 mps 746 mmHg 88%
05:00 +5°C° 0.2 mm 6 mps 746 mmHg 88%
06:00 +6°C° 0.2 mm 5 mps 746 mmHg 88%
07:00 +7°C° 0.1 mm 4 mps 747 mmHg 83%
08:00 +8°C° 0.1 mm 4 mps 747 mmHg 78%
09:00 +11°C° 0.1 mm 3 mps 747 mmHg 73%
10:00 +10°C° 0.7 mm 5 mps 748 mmHg 71%
11:00 +11°C° 0.7 mm 6 mps 748 mmHg 70%
12:00 +12°C° 0.7 mm 8 mps 749 mmHg 68%
13:00 +12°C° 1.2 mm 9 mps 749 mmHg 71%
14:00 +11°C° 1.2 mm 10 mps 750 mmHg 75%
15:00 +10°C° 1.2 mm 12 mps 750 mmHg 79%
16:00 +10°C° 0.3 mm 12 mps 751 mmHg 76%
17:00 +10°C° 0.3 mm 12 mps 751 mmHg 73%
18:00 +10°C° 0.3 mm 13 mps 752 mmHg 71%
19:00 +10°C° 0.4 mm 13 mps 753 mmHg 72%
20:00 +10°C° 0.4 mm 13 mps 753 mmHg 72%
21:00 +10°C° 0.4 mm 13 mps 754 mmHg 73%
22:00 +9°C° 0.1 mm 13 mps 754 mmHg 71%
23:00 +9°C° 0.1 mm 13 mps 755 mmHg 68%

26 September, Saturday

Time Temperature Precipitation Wind Pressure Humidity
00:00 +9°C° 0.1 mm 13 mps 755 mmHg 66%
01:00 +9°C° 0.1 mm 13 mps 755 mmHg 66%
02:00 +9°C° 0.1 mm 13 mps 755 mmHg 65%
03:00 +9°C° 0.1 mm 12 mps 756 mmHg 65%
04:00 +9°C° 0.3 mm 12 mps 756 mmHg 68%
05:00 +9°C° 0.3 mm 12 mps 756 mmHg 72%
06:00 +9°C° 0.3 mm 12 mps 757 mmHg 75%
07:00 +9°C° 0.7 mm 12 mps 757 mmHg 74%
08:00 +10°C° 0.7 mm 12 mps 757 mmHg 72%
09:00 +10°C° 0.7 mm 12 mps 757 mmHg 71%
10:00 +10°C° 0.7 mm 12 mps 758 mmHg 70%
11:00 +10°C° 0.7 mm 12 mps 758 mmHg 68%
12:00 +12°C° 0.7 mm 11 mps 758 mmHg 66%
13:00 +12°C° 0.1 mm 12 mps 758 mmHg 64%
14:00 +12°C° 0.1 mm 12 mps 759 mmHg 61%
15:00 +12°C° 0.1 mm 12 mps 759 mmHg 59%
16:00 +11°C° 0 mm 11 mps 759 mmHg 61%
17:00 +9°C° 0 mm 10 mps 760 mmHg 64%
18:00 +8°C° 0 mm 9 mps 760 mmHg 66%
19:00 +10°C° 0.1 mm 9 mps 760 mmHg 66%
20:00 +10°C° 0.1 mm 9 mps 760 mmHg 66%
21:00 +10°C° 0.1 mm 9 mps 760 mmHg 67%
22:00 +10°C° 0.1 mm 9 mps 760 mmHg 68%
23:00 +10°C° 0.1 mm 9 mps 761 mmHg 69%

27 September, Sunday

Time Temperature Precipitation Wind Pressure Humidity
00:00 +10°C° 0.1 mm 8 mps 761 mmHg 70%
01:00 +10°C° 0.1 mm 8 mps 761 mmHg 70%
02:00 +10°C° 0.1 mm 8 mps 761 mmHg 71%
03:00 +10°C° 0.1 mm 8 mps 761 mmHg 72%
04:00 +10°C° 0.1 mm 8 mps 761 mmHg 71%
05:00 +10°C° 0.1 mm 8 mps 761 mmHg 70%
06:00 +10°C° 0.1 mm 8 mps 761 mmHg 69%
07:00 +10°C° 0.1 mm 9 mps 761 mmHg 69%
08:00 +11°C° 0.1 mm 9 mps 761 mmHg 69%
09:00 +11°C° 0.1 mm 9 mps 761 mmHg 68%
10:00 +11°C° 0.1 mm 9 mps 762 mmHg 67%
11:00 +12°C° 0.1 mm 9 mps 762 mmHg 66%
12:00 +12°C° 0.1 mm 10 mps 762 mmHg 65%
13:00 +12°C° 0.1 mm 10 mps 762 mmHg 67%
14:00 +12°C° 0.1 mm 10 mps 762 mmHg 69%
15:00 +12°C° 0.1 mm 10 mps 762 mmHg 70%
16:00 +11°C° 0.1 mm 9 mps 762 mmHg 71%
17:00 +11°C° 0.1 mm 9 mps 763 mmHg 72%
18:00 +10°C° 0.1 mm 9 mps 763 mmHg 73%
19:00 +10°C° 0 mm 9 mps 763 mmHg 72%
20:00 +10°C° 0 mm 8 mps 763 mmHg 71%
21:00 +10°C° 0 mm 8 mps 764 mmHg 71%
22:00 +10°C° 0 mm 8 mps 764 mmHg 70%
23:00 +10°C° 0 mm 7 mps 764 mmHg 69%
Show more